STARLINK-32919, 63150

Orbit data source: Space-Track

STARLINK-32919, 63150 is a payload satellite owned by SpaceX/Seattle (US) in LEO that was launched on Mon, 03 Mar 2025 UTC via an FALCON 9 launch vehicle from the Air Force Eastern Test Range (AFETR). Payload-class satellites include a variety of spacecraft equipped with specific instruments for various scientific and technological missions. These include communications satellites like Starlink; space stations such as the ISS; scientific satellites like the Hubble; Earth observation satellites from companies like Planet Labs, Umbra, and HawkEye 360; GPS; miniature CubeSats for education and research; and military/defense satellites.

Loading next visibility...
Identifier
63150, 2025-043U
Orbit
LEO
Country
Flag of USUS
Related business
Manufacturer
SpaceX/Seattle
Mission
Operational Commercial Communications
Bus & Motor
STARLINK V2M, Unknown motor
Mass
730 kg wet, ~700 kg dry
Launch date (UTC)
2025-03-03 (2 years ago)
Launch vehicle
FALCON 9
Launch site
Air Force Eastern Test Range (AFETR)
Object type
Payload
Rocket body
Debris
Shape & HBR
Box + 2 Pan, 17.7 m
Radar Cross Section
33.884 m², Large (>1 m²)

Expand to show TLE details & history
Last TLE update: 10 hours ago

TLE from 10 hours ago
0 STARLINK-32919
1 63150U 25043U   26255.89870574  .00016481  00000-0  60668-3 0  9996
2 63150  43.0021  38.9602 0001311 266.5406  93.5295 15.27602530 85995
Epoch: 2026-09-12T21:34Z
TLE epoch observation values (Epoch: 2026-09-12T21:34:08.175Z)
Latitude
-0.00009°
Longitude
83.52495°
Altitude
482.813 km
Speed
7.626 km/s
True Right ascension
02h 35m 50s
True Declination
0° 00' 00"
Sunlit
Object was in full shadow at epoch
Visualization orbit readout
Latitude
Unknown
Longitude
Unknown
Altitude
Unknown
Speed
Unknown
Apparent Right ascension
Unknown
Apparent Declination
Unknown
Sunlit
N/A
Visualization observer readout
Local Sidereal Time
23:52:13
Azimuth
Unknown
Elevation
Unknown
Doppler factor
Unknown
Orbital elements
Apogee altitude
485.826 km
Perigee altitude
484.027 km
Semi-major axis
6,863.063 km
Eccentricity
0.00013
Inclination
43.0021°
RAAN
38.9602°
Arg. of periapsis
266.5406°
True anomaly
93.54449°
Mean anomaly
93.5295°
Eccentric anomaly
93.537°
Mean motion
3.81739 °/min
Orbital period
94.31 mins
BSTAR
0.00060668
Loading maneuver chart data...
Computing Atmospheric mass density...
Loading historical data...
Loading historical data...
Loading historical data...
Loading historical data...
Loading historical data...
Loading historical data...
Loading historical data...

Documentation

Showing up to 5 results
|